North Wilkesboro, NC

5:57 AM EDT on June 24, 2017 (GMT -0400)
Wilkes County

Weather History for KUKF - October, 2012

Change the Weather History Date:

Tuesday, October 30, 2012

  Actual Average Record
Temperature  
Mean Temperature 40 °F -  
Max Temperature 42 °F 67 °F 84 °F (1984)
Min Temperature 35 °F 37 °F 20 °F (1965)
Degree Days  
Heating Degree Days 26    
Moisture  
Dew Point 29 °F    
Average Humidity 62    
Maximum Humidity 87    
Minimum Humidity 57    
Precipitation  
Precipitation 0.00 in - - ()
Sea Level Pressure  
Sea Level Pressure 29.51 in    
Wind  
Wind Speed 13 mph (West)    
Max Wind Speed 24 mph    
Max Gust Speed 39 mph    
Visibility 10 miles    
Events      
Averages and records for this station are not official NWS values.
T = Trace of Precipitation, MM = Missing Value Source: NWS Daily Summary

Daily Weather History Graph

Daily Weather History Graph

Search for Another Location

Airport or City:

Trip Planner

Search our weather history database for the weather conditions in past years. The results will help you decide how hot, cold, wet, or windy it might be!

Date:

Astronomy

Oct. 30, 2012 Rise Set
Actual Time 7:45 AM EDT 6:29 PM EDT
Civil Twilight 7:19 AM EDT 6:56 PM EDT
Nautical Twilight 6:48 AM EDT 7:26 PM EDT
Astronomical Twilight 6:18 AM EDT 7:56 PM EDT
Moon 7:01 PM EDT (10/30) 8:28 AM EDT (10/30)
Length of Visible Light 11h 37m
Length of Day
10h 44m
Full, 99% of the Moon is Illuminated
Oct 30
Full
Nov 6
Last Quarter
Nov 13
New
Nov 20
First Quarter
Nov 28
Full

Hourly Weather History & Observations

Time (EDT) Temp. Windchill Dew Point Humidity Pressure Visibility Wind Dir Wind Speed Gust Speed Precip Events Conditions
12:15 AM 41.0 °F 30.9 °F 26.6 °F 57% 29.49 in 10.0 mi West 24.2 mph 36.8 mph N/A   Clear
12:35 AM 41.0 °F 34.3 °F 26.6 °F 57% 29.48 in 10.0 mi WNW 11.5 mph 39.1 mph N/A   Clear
12:55 AM 41.0 °F 32.5 °F 26.6 °F 57% 29.47 in 10.0 mi WNW 17.3 mph 28.8 mph N/A   Clear
1:15 AM 41.0 °F 32.2 °F 26.6 °F 57% 29.46 in 10.0 mi West 18.4 mph 26.5 mph N/A   Clear
1:35 AM 41.0 °F 32.8 °F 26.6 °F 57% 29.46 in 10.0 mi WNW 16.1 mph 31.1 mph N/A   Clear
1:55 AM 39.2 °F 29.8 °F 26.6 °F 61% 29.44 in 10.0 mi West 18.4 mph 29.9 mph N/A   Scattered Clouds
2:15 AM 39.2 °F 31.6 °F 26.6 °F 61% 29.44 in 10.0 mi WNW 12.7 mph 34.5 mph N/A   Clear
2:35 AM 41.0 °F 34.7 °F 26.6 °F 57% 29.43 in 10.0 mi West 10.4 mph 39.1 mph N/A   Clear
2:55 AM 41.0 °F 32.5 °F 26.6 °F 57% 29.42 in 10.0 mi West 17.3 mph 29.9 mph N/A   Scattered Clouds
3:15 AM 41.0 °F 31.9 °F 26.6 °F 57% 29.42 in 10.0 mi WNW 19.6 mph 31.1 mph N/A   Scattered Clouds
3:35 AM 41.0 °F 33.5 °F 26.6 °F 57% 29.41 in 10.0 mi WNW 13.8 mph 36.8 mph N/A   Mostly Cloudy
3:55 AM 41.0 °F 30.9 °F 26.6 °F 57% 29.41 in 10.0 mi WNW 24.2 mph 33.4 mph N/A   Mostly Cloudy
4:15 AM 41.0 °F 34.3 °F 26.6 °F 57% 29.41 in 10.0 mi WNW 11.5 mph 31.1 mph N/A   Mostly Cloudy
4:55 AM 41.0 °F 33.1 °F 26.6 °F 57% 29.42 in 10.0 mi West 15.0 mph 32.2 mph N/A   Mostly Cloudy
5:15 AM 41.0 °F 32.8 °F 26.6 °F 57% 29.42 in 10.0 mi West 16.1 mph 28.8 mph N/A   Mostly Cloudy
5:35 AM 41.0 °F 32.5 °F 26.6 °F 57% 29.42 in 10.0 mi West 17.3 mph 27.6 mph N/A   Overcast
5:55 AM 41.0 °F 33.9 °F 26.6 °F 57% 29.43 in 10.0 mi WNW 12.7 mph 26.5 mph N/A   Scattered Clouds
6:15 AM 41.0 °F 33.9 °F 26.6 °F 57% 29.43 in 10.0 mi WNW 12.7 mph 23.0 mph N/A   Mostly Cloudy
6:35 AM 41.0 °F 34.3 °F 26.6 °F 57% 29.43 in 10.0 mi WNW 11.5 mph 32.2 mph N/A   Overcast
6:55 AM 41.0 °F 33.9 °F 28.4 °F 61% 29.43 in 10.0 mi WNW 12.7 mph 24.2 mph N/A   Mostly Cloudy
7:15 AM 41.0 °F 34.3 °F 28.4 °F 61% 29.44 in 10.0 mi WNW 11.5 mph 21.9 mph N/A   Scattered Clouds
7:35 AM 41.0 °F 33.1 °F 26.6 °F 57% 29.45 in 10.0 mi WNW 15.0 mph 24.2 mph N/A   Clear
7:55 AM 41.0 °F 33.5 °F 26.6 °F 57% 29.45 in 10.0 mi WNW 13.8 mph 26.5 mph N/A   Clear
8:15 AM 41.0 °F 33.9 °F 26.6 °F 57% 29.46 in 10.0 mi WNW 12.7 mph 24.2 mph N/A   Clear
8:35 AM 41.0 °F 34.3 °F 26.6 °F 57% 29.46 in 10.0 mi WNW 11.5 mph 28.8 mph N/A   Mostly Cloudy
8:55 AM 41.0 °F 33.9 °F 26.6 °F 57% 29.46 in 10.0 mi NW 12.7 mph 24.2 mph N/A   Overcast
9:15 AM 41.0 °F 34.3 °F 26.6 °F 57% 29.46 in 10.0 mi West 11.5 mph 17.3 mph N/A   Scattered Clouds
9:35 AM 41.0 °F 36.4 °F 26.6 °F 57% 29.47 in 10.0 mi WNW 6.9 mph 24.2 mph N/A   Mostly Cloudy
9:55 AM 41.0 °F 35.2 °F 26.6 °F 57% 29.47 in 10.0 mi West 9.2 mph 16.1 mph N/A   Overcast
10:15 AM 41.0 °F 38.0 °F 28.4 °F 61% 29.47 in 10.0 mi West 4.6 mph - N/A   Overcast
10:35 AM 41.0 °F 35.2 °F 28.4 °F 61% 29.47 in 10.0 mi West 9.2 mph - N/A   Overcast
10:55 AM 42.8 °F 39.3 °F 28.4 °F 57% 29.47 in 10.0 mi West 5.8 mph 23.0 mph N/A   Overcast
11:15 AM 42.8 °F 38.0 °F 28.4 °F 57% 29.48 in 10.0 mi WSW 8.1 mph - N/A   Overcast
11:35 AM 42.8 °F 37.0 °F 28.4 °F 57% 29.49 in 10.0 mi WNW 10.4 mph 17.3 mph N/A   Overcast
11:55 AM 42.8 °F 36.2 °F 28.4 °F 57% 29.49 in 10.0 mi WNW 12.7 mph 18.4 mph N/A   Overcast
12:15 PM 42.8 °F 37.5 °F 28.4 °F 57% 29.51 in 10.0 mi WNW 9.2 mph 17.3 mph N/A   Overcast
12:35 PM 42.8 °F 37.5 °F 28.4 °F 57% 29.51 in 10.0 mi WNW 9.2 mph 17.3 mph N/A   Overcast
12:55 PM 42.8 °F 37.5 °F 28.4 °F 57% 29.51 in 10.0 mi West 9.2 mph - N/A   Overcast
1:15 PM 42.8 °F 35.8 °F 28.4 °F 57% 29.51 in 10.0 mi West 13.8 mph 20.7 mph N/A   Overcast
1:35 PM 42.8 °F 39.3 °F 28.4 °F 57% 29.51 in 10.0 mi West 5.8 mph - N/A   Overcast
1:55 PM 42.8 °F 36.6 °F 28.4 °F 57% 29.51 in 10.0 mi WNW 11.5 mph 18.4 mph N/A   Overcast
2:15 PM 42.8 °F 38.6 °F 30.2 °F 61% 29.51 in 10.0 mi West 6.9 mph - N/A   Overcast
2:35 PM 42.8 °F 37.0 °F 30.2 °F 61% 29.51 in 10.0 mi WSW 10.4 mph 16.1 mph N/A   Overcast
2:55 PM 42.8 °F 38.0 °F 30.2 °F 61% 29.52 in 10.0 mi West 8.1 mph - N/A   Overcast
3:15 PM 42.8 °F 38.0 °F 30.2 °F 61% 29.52 in 10.0 mi West 8.1 mph - N/A   Overcast
3:35 PM 42.8 °F 40.1 °F 30.2 °F 61% 29.53 in 10.0 mi West 4.6 mph - N/A   Overcast
3:55 PM 42.8 °F 39.3 °F 30.2 °F 61% 29.53 in 10.0 mi WSW 5.8 mph - N/A   Overcast
4:15 PM 42.8 °F 41.1 °F 30.2 °F 61% 29.55 in 10.0 mi NW 3.5 mph - N/A   Overcast
4:35 PM 42.8 °F 39.3 °F 30.2 °F 61% 29.55 in 10.0 mi West 5.8 mph - N/A   Overcast
4:55 PM 42.8 °F 39.3 °F 30.2 °F 61% 29.56 in 10.0 mi NW 5.8 mph - N/A   Overcast
5:15 PM 42.8 °F 40.1 °F 30.2 °F 61% 29.57 in 10.0 mi WNW 4.6 mph - N/A   Overcast
5:35 PM 42.8 °F 38.6 °F 30.2 °F 61% 29.58 in 10.0 mi WNW 6.9 mph - N/A   Overcast
5:55 PM 41.0 °F 39.0 °F 30.2 °F 65% 29.58 in 10.0 mi NW 3.5 mph - N/A   Overcast
6:15 PM 41.0 °F 37.1 °F 32.0 °F 70% 29.59 in 10.0 mi WSW 5.8 mph - N/A   Overcast
6:35 PM 41.0 °F 39.0 °F 32.0 °F 70% 29.60 in 10.0 mi WSW 3.5 mph - N/A   Overcast
6:55 PM 41.0 °F 37.1 °F 32.0 °F 70% 29.61 in 10.0 mi SW 5.8 mph - N/A   Overcast
7:15 PM 41.0 °F 39.0 °F 32.0 °F 70% 29.61 in 10.0 mi WSW 3.5 mph - N/A   Overcast
7:35 PM 41.0 °F 37.1 °F 32.0 °F 70% 29.62 in 10.0 mi SW 5.8 mph - N/A   Overcast
7:55 PM 39.2 °F 35.9 °F 32.0 °F 75% 29.63 in 10.0 mi SW 4.6 mph - N/A   Overcast
8:15 PM 39.2 °F 37.0 °F 32.0 °F 75% 29.63 in 10.0 mi WSW 3.5 mph - N/A   Overcast
8:55 PM 39.2 °F 35.9 °F 32.0 °F 75% 29.64 in 10.0 mi SW 4.6 mph - N/A   Overcast
9:15 PM 39.2 °F - 30.2 °F 70% 29.64 in 10.0 mi Calm Calm - N/A   Overcast
9:35 PM 37.4 °F - 30.2 °F 75% 29.65 in 10.0 mi Calm Calm - N/A   Overcast
9:55 PM 37.4 °F - 30.2 °F 75% 29.65 in 10.0 mi Calm Calm - N/A   Mostly Cloudy
10:15 PM 37.4 °F - 30.2 °F 75% 29.65 in 10.0 mi Calm Calm - N/A   Mostly Cloudy
10:35 PM 37.4 °F - 30.2 °F 75% 29.66 in 10.0 mi Calm Calm - N/A   Mostly Cloudy
10:55 PM 37.4 °F - 30.2 °F 75% 29.65 in 10.0 mi Calm Calm - N/A   Mostly Cloudy
11:35 PM 37.4 °F - 32.0 °F 81% 29.65 in 10.0 mi Calm Calm - N/A   Mostly Cloudy
11:55 PM 35.6 °F - 32.0 °F 87% 29.65 in 10.0 mi Calm Calm - N/A   Mostly Cloudy